Location: Oregon Star Party
(44.2935°N, 120.1332°W)
Time: 16:44:54
(UTC-07:00)

Amateur Radio Satellites - All Passes

Search period start: 31 October 2014 16:14
Search period end: 01 November 2014 16:14
Location: Oregon Star Party, 44.2935°N, 120.1332°W

Satellite Date Start Highest point End Downlink Frequencies (MHz)
Time Altitude Azimuth
Uosat F 31 Oct 16:16:06 16:21:04 62° 72° (ENE) 16:26:03 435.120 FM
AO-7 31 Oct 16:46:03 16:54:13 63° 256° (WSW) 17:02:27 29.400 - 29.500 MHz
ISS 31 Oct 17:15:23 17:18:22 31° 221° (SW) 17:21:21 145.800 FM
Hamsat 31 Oct 17:19:45 17:23:31 34° 70° (ENE) 17:27:17 145.90 MHz
KITSAT 1 31 Oct 17:24:40 17:30:18 20° 22° (NNE) 17:35:55 435.175 FM
JAS-2 31 Oct 17:24:57 17:31:17 73° 72° (ENE) 17:38:30 435.800 - 435.900 CW/SSB, 435.910 FM
SO-50 31 Oct 17:40:48 17:42:10 11° 26° (NNE) 17:43:32 436.795 FM
Oscar 10/S400 31 Oct 17:42:23 18:03:30 54° 179° (S) 01:00:04 145.825 - 145.975 CW/USB, Beacon 145.810 USB
Uosat F 31 Oct 17:57:02 18:00:16 17° 269° (W) 18:03:31 435.120 FM
SO-67 31 Oct 18:02:33 18:03:09 10° 63° (ENE) 18:03:46 435.3500 MHz FM
OPAL 31 Oct 18:22:59 18:27:55 63° 104° (ESE) 18:32:48 ?
STRAND 1 31 Oct 18:42:18 18:45:19 16° 90° (E) 18:48:19 ?
AO-7 31 Oct 18:46:27 18:48:39 11° 276° (W) 18:50:52 29.400 - 29.500 MHz
Hamsat 31 Oct 18:56:17 18:59:32 22° 267° (W) 19:02:49 145.90 MHz
HO-68 31 Oct 18:58:54 19:02:48 16° 49° (NE) 19:06:42 435.675 MHz FM
JAS-2 31 Oct 19:12:27 19:17:10 21° 274° (W) 19:22:18 435.800 - 435.900 CW/SSB, 435.910 FM
SO-50 31 Oct 19:19:26 19:24:01 41° 47° (NE) 19:28:38 436.795 FM
KITSAT 1 31 Oct 19:19:55 19:27:48 53° 49° (NE) 19:35:39 435.175 FM
SO-67 31 Oct 19:32:17 19:35:39 54° 260° (W) 19:39:03 435.3500 MHz FM
UOSAT-12 31 Oct 20:02:04 20:05:10 17° 34° (NE) 20:08:14 437.025 FM, 437.400 FM
OPAL 31 Oct 20:02:58 20:06:19 19° 302° (WNW) 20:09:40 ?
STRAND 1 31 Oct 20:19:53 20:25:01 69° 287° (WNW) 20:30:07 ?
HO-68 31 Oct 20:42:09 20:49:14 69° 69° (ENE) 20:56:23 435.675 MHz FM
RS-15 31 Oct 20:57:44 21:08:13 54° 113° (ESE) 21:18:38 29.354 - 29.394 USB, Beacon 29.352 USB
SO-50 31 Oct 21:00:14 21:04:28 30° 245° (WSW) 21:08:42 436.795 FM
UKube-1 31 Oct 21:03:37 21:07:24 30° 67° (ENE) 21:11:13 145.840 MHz, 145.915 MHz
ZACube-1 31 Oct 21:14:30 21:17:22 17° 63° (ENE) 21:20:13 437.345 MHz
KITSAT 1 31 Oct 21:15:38 21:23:02 41° 250° (WSW) 21:30:25 435.175 FM
Oscar 11 31 Oct 21:37:41 21:41:56 60° 73° (ENE) 21:46:12 145.825 FM, Beacon 2401.500 USB
UOSAT-12 31 Oct 21:41:18 21:46:03 83° 55° (NE) 21:50:43 437.025 FM, 437.400 FM
FUNcube-1 31 Oct 21:55:38 21:59:52 41° 71° (ENE) 22:04:02 145.950 - 145.970 MHz USB
MaSat-1 31 Oct 21:56:29 22:00:00 34° 112° (ESE) 22:03:12 437.345 MHz
STRAND 1 31 Oct 22:02:17 22:03:15 11° 306° (NW) 22:04:13 ?
HO-68 31 Oct 22:31:53 22:37:30 24° 268° (W) 22:43:10 435.675 MHz FM
UKube-1 31 Oct 22:39:49 22:43:33 28° 264° (W) 22:47:19 145.840 MHz, 145.915 MHz
ZACube-1 31 Oct 22:48:55 22:53:22 55° 260° (W) 22:57:44 437.345 MHz
RS-15 31 Oct 23:10:02 23:20:38 52° 318° (NW) 23:31:20 29.354 - 29.394 USB, Beacon 29.352 USB
Oscar 11 31 Oct 23:16:25 23:18:30 13° 270° (W) 23:20:36 145.825 FM, Beacon 2401.500 USB
AO-40 31 Oct 23:17:02 00:08:38 13° 236° (SW) 01:17:24 Beacon 2401.320
UOSAT-12 31 Oct 23:23:27 23:25:31 13° 252° (WSW) 23:27:33 437.025 FM, 437.400 FM
MaSat-1 31 Oct 23:32:39 23:35:25 20° 306° (NW) 23:37:59 437.345 MHz
FUNcube-1 31 Oct 23:33:00 23:36:23 21° 267° (W) 23:39:44 145.950 - 145.970 MHz USB
PCSat 01 Nov 00:59:26 01:00:04 10° 101° (E) 01:00:41 145.825 MHz
JAS-1B 01 Nov 01:08:21 01:13:15 18° 91° (E) 01:18:36 435.800 - 435.900 CW/SSB
Oscar 19 01 Nov 01:15:23 01:17:30 12° 88° (E) 01:19:37 437.125 CW, 437.150 USB
RS-15 01 Nov 01:27:29 01:36:17 27° 350° (N) 01:45:16 29.354 - 29.394 USB, Beacon 29.352 USB
AO-27 01 Nov 01:53:36 01:55:24 12° 87° (E) 01:57:11 436.795 MHz FM
Oscar 16 01 Nov 02:00:35 02:05:15 34° 97° (E) 02:09:52 437.025 USB, Beacon 2401.1428
Sapphire 01 Nov 02:15:49 02:20:58 47° 114° (ESE) 02:26:09 437.095 MHz 1200 baud AX-25 AFSK
AO-Echo 01 Nov 02:30:17 02:35:11 36° 96° (E) 02:39:59 ?
Uribyol 2 01 Nov 02:34:49 02:39:23 30° 96° (E) 02:43:54 436.500 FM
PCSat 01 Nov 02:37:06 02:42:30 75° 118° (ESE) 02:47:56 145.825 MHz
ITAMSAT 1 01 Nov 02:42:51 02:47:35 34° 96° (E) 02:52:15 435.822 SSB
Oscar 19 01 Nov 02:52:20 02:57:29 83° 285° (WNW) 03:02:37 437.125 CW, 437.150 USB
JAS-1B 01 Nov 02:57:16 03:04:23 89° 105° (ESE) 03:12:57 435.800 - 435.900 CW/SSB
AO-27 01 Nov 03:30:22 03:35:38 90° 264° (W) 03:40:51 436.795 MHz FM
Oscar 16 01 Nov 03:40:02 03:44:32 32° 294° (WNW) 03:49:02 437.025 USB, Beacon 2401.1428
RS-15 01 Nov 03:43:32 03:53:11 33° 25° (NNE) 04:03:05 29.354 - 29.394 USB, Beacon 29.352 USB
Gurwin Techsat 1B 01 Nov 03:49:45 03:55:06 75° 103° (ESE) 04:00:24 435.225 FM
TMSAT-1 01 Nov 03:55:40 04:00:58 64° 101° (ESE) 04:06:12 436.925 FM
Sapphire 01 Nov 03:59:47 04:04:34 31° 313° (NW) 04:09:23 437.095 MHz 1200 baud AX-25 AFSK
OPAL 01 Nov 04:02:36 04:06:12 20° 59° (ENE) 04:09:46 ?
AO-Echo 01 Nov 04:09:08 04:13:51 33° 294° (WNW) 04:18:31 ?
Uribyol 2 01 Nov 04:14:09 04:18:54 37° 293° (WNW) 04:23:36 436.500 FM
PCSat 01 Nov 04:22:20 04:26:30 22° 319° (NW) 04:30:41 145.825 MHz
ITAMSAT 1 01 Nov 04:22:23 04:27:02 33° 294° (WNW) 04:31:39 435.822 SSB
Uosat F 01 Nov 04:23:27 04:26:38 17° 91° (E) 04:29:48 435.120 FM
Oscar 19 01 Nov 04:33:58 04:36:01 12° 304° (WNW) 04:38:05 437.125 CW, 437.150 USB
JAS-2 01 Nov 04:35:48 04:38:27 12° 81° (E) 04:41:05 435.800 - 435.900 CW/SSB, 435.910 FM
AO-7 01 Nov 04:45:45 04:53:33 42° 99° (E) 05:01:19 29.400 - 29.500 MHz
JAS-1B 01 Nov 04:49:27 04:54:22 21° 302° (WNW) 04:59:51 435.800 - 435.900 CW/SSB
AO-27 01 Nov 05:11:47 05:14:23 14° 303° (WNW) 05:16:59 436.795 MHz FM
Gurwin Techsat 1B 01 Nov 05:31:08 05:34:27 17° 301° (WNW) 05:37:46 435.225 FM
Saudisat 1A 01 Nov 05:33:07 05:37:08 36° 117° (ESE) 05:41:11 436.775 MHz
TMSAT-1 01 Nov 05:36:40 05:40:23 20° 299° (WNW) 05:44:05 436.925 FM
OPAL 01 Nov 05:39:36 05:44:39 61° 256° (WSW) 05:49:39 ?
RS-15 01 Nov 05:56:23 06:07:36 78° 53° (NE) 06:19:16 29.354 - 29.394 USB, Beacon 29.352 USB
STRAND 1 01 Nov 05:59:19 06:03:37 28° 64° (ENE) 06:07:56 ?
Uosat F 01 Nov 06:00:51 06:05:52 63° 288° (WNW) 06:10:49 435.120 FM
JAS-2 01 Nov 06:17:07 06:24:57 63° 100° (E) 06:32:29 435.800 - 435.900 CW/SSB, 435.910 FM
AO-7 01 Nov 06:38:32 06:46:25 49° 298° (WNW) 06:54:19 29.400 - 29.500 MHz
Hamsat 01 Nov 06:38:59 06:43:09 56° 100° (E) 06:47:19 145.90 MHz
Saudisat 1A 01 Nov 07:12:52 07:16:45 30° 316° (NW) 07:20:40 436.775 MHz
STRAND 1 01 Nov 07:37:47 07:42:37 41° 262° (W) 07:47:29 ?
MaSat-1 01 Nov 07:39:04 07:41:34 79° 244° (WSW) 07:43:55 437.345 MHz
JAS-2 01 Nov 08:02:43 08:09:27 33° 299° (WNW) 08:16:05 435.800 - 435.900 CW/SSB, 435.910 FM
RS-15 01 Nov 08:09:40 08:18:57 32° 255° (WSW) 08:28:36 29.354 - 29.394 USB, Beacon 29.352 USB
Hamsat 01 Nov 08:16:14 08:18:40 15° 297° (WNW) 08:21:06 145.90 MHz
SO-67 01 Nov 08:26:38 08:30:02 57° 285° (WNW) 08:33:25 435.3500 MHz FM
AO-7 01 Nov 08:33:55 08:37:14 13° 321° (NW) 08:40:34 29.400 - 29.500 MHz
Sapphire 01 Nov 09:20:07 09:22:39 13° 32° (NNE) 09:25:12 437.095 MHz 1200 baud AX-25 AFSK
PCSat 01 Nov 09:41:04 09:44:44 18° 38° (NE) 09:48:23 145.825 MHz
KITSAT 1 01 Nov 09:51:30 09:57:51 26° 105° (ESE) 10:04:12 435.175 FM
HO-68 01 Nov 09:55:35 10:02:44 61° 103° (ESE) 10:09:48 435.675 MHz FM
ISS 01 Nov 09:58:08 10:01:10 35° 140° (SE) 10:04:14 145.800 FM
UKube-1 01 Nov 10:25:40 10:29:50 42° 99° (E) 10:33:58 145.840 MHz, 145.915 MHz
ZACube-1 01 Nov 10:37:05 10:40:30 24° 94° (E) 10:43:53 437.345 MHz
Oscar 11 01 Nov 10:59:38 11:03:58 82° 284° (WNW) 11:08:17 145.825 FM, Beacon 2401.500 USB
Sapphire 01 Nov 11:02:01 11:07:22 54° 54° (NE) 11:12:40 437.095 MHz 1200 baud AX-25 AFSK
SO-50 01 Nov 11:15:53 11:20:19 63° 121° (ESE) 11:24:55 436.795 FM
FUNcube-1 01 Nov 11:19:09 11:23:21 69° 102° (ESE) 11:27:28 145.950 - 145.970 MHz USB
PCSat 01 Nov 11:23:32 11:29:00 83° 59° (ENE) 11:34:26 145.825 MHz
ISS 01 Nov 11:34:40 11:37:50 41° 338° (NNW) 11:41:02 145.800 FM
HO-68 01 Nov 11:43:58 11:49:59 30° 302° (WNW) 11:56:00 435.675 MHz FM
KITSAT 1 01 Nov 11:44:24 11:52:29 75° 305° (NW) 12:00:36 435.175 FM
UOSAT-12 01 Nov 11:55:30 11:58:29 17° 110° (ESE) 12:01:30 437.025 FM, 437.400 FM
JAS-1B 01 Nov 11:59:16 12:01:55 14° 53° (NE) 12:04:36 435.800 - 435.900 CW/SSB
UKube-1 01 Nov 12:02:31 12:05:44 20° 296° (WNW) 12:08:56 145.840 MHz, 145.915 MHz
ZACube-1 01 Nov 12:13:14 12:16:56 31° 291° (WNW) 12:20:35 437.345 MHz
Saudisat 1A 01 Nov 12:20:20 12:21:37 11° 29° (NNE) 12:22:54 436.775 MHz
Oscar 19 01 Nov 12:33:03 12:37:02 23° 63° (ENE) 12:41:01 437.125 CW, 437.150 USB
Sapphire 01 Nov 12:46:07 12:50:25 24° 252° (WSW) 12:54:42 437.095 MHz 1200 baud AX-25 AFSK
FUNcube-1 01 Nov 12:57:28 12:59:09 12° 299° (WNW) 13:00:50 145.950 - 145.970 MHz USB
SO-50 01 Nov 12:57:44 13:01:18 22° 321° (NW) 13:04:58 436.795 FM
PCSat 01 Nov 13:08:46 13:11:41 15° 257° (WSW) 13:14:34 145.825 MHz
AO-27 01 Nov 13:12:14 13:16:16 23° 62° (ENE) 13:20:19 436.795 MHz FM
ISS 01 Nov 13:12:25 13:15:07 22° 358° (N) 13:17:50 145.800 FM
Oscar 16 01 Nov 13:18:59 13:24:02 59° 72° (ENE) 13:29:05 437.025 USB, Beacon 2401.1428
UOSAT-12 01 Nov 13:33:30 13:38:07 64° 308° (NW) 13:42:50 437.025 FM, 437.400 FM
Gurwin Techsat 1B 01 Nov 13:34:37 13:38:24 20° 61° (ENE) 13:42:11 435.225 FM
TMSAT-1 01 Nov 13:40:42 13:44:04 17° 59° (ENE) 13:47:26 436.925 FM
KITSAT 1 01 Nov 13:42:54 13:49:19 25° 329° (NNW) 13:55:45 435.175 FM
AO-Echo 01 Nov 13:44:33 13:49:25 52° 71° (ENE) 13:54:28 ?
JAS-1B 01 Nov 13:45:57 13:51:40 87° 75° (ENE) 13:57:29 435.800 - 435.900 CW/SSB
Uribyol 2 01 Nov 13:54:03 13:59:07 54° 70° (ENE) 14:04:13 436.500 FM
Saudisat 1A 01 Nov 13:57:56 14:02:15 48° 50° (NE) 14:06:32 436.775 MHz
AO-7 01 Nov 13:58:21 14:03:07 17° 44° (NE) 14:07:54 29.400 - 29.500 MHz
ITAMSAT 1 01 Nov 14:02:16 14:07:23 60° 71° (ENE) 14:12:33 435.822 SSB
Oscar 19 01 Nov 14:11:05 14:16:03 49° 260° (W) 14:21:03 437.125 CW, 437.150 USB
ISS 01 Nov 14:49:23 14:52:28 33° 18° (NNE) 14:55:33 145.800 FM
AO-27 01 Nov 14:50:21 14:55:26 51° 260° (W) 15:00:33 436.795 MHz FM
Oscar 16 01 Nov 15:00:15 15:03:46 18° 269° (W) 15:07:18 437.025 USB, Beacon 2401.1428
Gurwin Techsat 1B 01 Nov 15:12:38 15:17:53 62° 259° (W) 15:23:10 435.225 FM
UOSAT-12 01 Nov 15:16:38 15:19:12 14° 329° (NNW) 15:21:48 437.025 FM, 437.400 FM
TMSAT-1 01 Nov 15:18:06 15:23:23 74° 257° (WSW) 15:28:43 436.925 FM
AO-Echo 01 Nov 15:24:47 15:28:31 21° 269° (W) 15:32:21 ?
Uribyol 2 01 Nov 15:35:03 15:38:55 21° 268° (W) 15:42:48 436.500 FM
Uosat F 01 Nov 15:37:53 15:42:08 28° 65° (ENE) 15:46:25 435.120 FM
Saudisat 1A 01 Nov 15:38:11 15:41:30 21° 248° (WSW) 15:44:48 436.775 MHz
JAS-1B 01 Nov 15:41:32 15:43:20 11° 274° (W) 15:45:08 435.800 - 435.900 CW/SSB
ITAMSAT 1 01 Nov 15:43:42 15:47:17 19° 269° (W) 15:50:53 435.822 SSB
KITSAT 1 01 Nov 15:43:52 15:48:12 15° 359° (N) 15:52:32 435.175 FM
AO-7 01 Nov 15:46:14 15:54:21 64° 66° (ENE) 16:02:31 29.400 - 29.500 MHz
